RH
20 32 40 35 36 46 36 56 56 34 30 34 38 33 30 26 26 31 33 35 37 36 33 28 35 43 44 44 48 49 54 55 58 63 65 63 63 62 64 64 62 63 63 64
16 24 19 26 29 33 32 42 30 20 28 28 41 35 31 29 28 29 31 34 36 36 35 32 31 46 47 47 47 48 54 59 60 62 65 68 60 64 63 61 62 60 63 65
19 17 14 16 23 27 27 30 27 29 30 26 32 38 36 29 27 27 27 29 30 32 35 34 33 36 48 49 49 49 56 55 56 64 63 62 55 71 67 62 61 66 61 61
15 15 17 18 18 19 33 21 27 39 62 82 50 57 40 35 33 28 29 28 29 31 32 34 32 35 41 50 48 50 54 55 53 62 63 63 62 62 60 57 62 64 62 67
15 14 16 14 14 18 24 27 34 47 78 81 44 42 42 37 37 33 30 28 26 27 30 32 31 32 35 44 49 48 55 58 54 59 64 54 55 57 55 60 56 65 65 70
12 9 13 11 10 16 20 26 37 49 72 87 46 38 44 40 34 31 26 24 22 25 26 27 28 27 34 41 50 50 53 60 60 54 58 64 56 54 59 60 61 63 64 66
13 11 10 9 13 18 25 41 57 55 69 54 38 40 40 28 27 25 24 24 20 22 25 28 33 29 34 43 50 55 52 57 56 62 60 58 61 63 60 62 65 61 59 61
18 18 11 10 11 26 33 40 48 67 87 45 40 27 25 19 20 19 20 20 20 17 24 27 31 30 35 40 50 59 57 58 57 56 66 64 62 68 65 60 59 58 61 61
17 17 10 9 11 18 28 45 38 74 60 59 36 19 17 17 18 18 17 17 20 20 23 26 35 35 34 38 49 56 57 56 62 56 61 67 61 63 68 66 62 59 58 58
12 18 12 9 9 18 18 29 50 77 48 48 26 26 29 21 20 18 18 17 17 18 21 25 33 35 34 30 41 49 50 53 61 65 63 64 71 69 67 67 71 64 61 58
9 11 14 10 12 18 19 27 34 46 36 65 38 33 26 25 20 18 17 15 17 20 24 27 30 32 32 33 36 47 52 56 60 68 68 64 65 68 71 68 63 68 64 63
8 9 15 13 10 9 13 16 26 52 28 34 39 27 16 18 16 18 18 19 21 22 26 31 31 30 32 36 37 44 50 53 53 56 60 63 60 60 64 66 64 64 65 67
8 12 15 14 11 10 13 19 32 35 26 29 28 26 15 18 22 23 25 27 30 30 28 35 44 50 44 46 42 41 44 47 48 51 55 54 58 58 61 62 62 61 64 63
11 8 14 22 16 14 20 19 20 26 36 31 25 22 18 16 23 26 29 32 43 49 50 54 61 67 62 56 53 51 52 54 51 50 52 52 52 57 58 59 61 60 64 77
9 10 13 18 14 13 14 19 17 20 22 27 20 19 20 23 26 30 42 50 53 57 57 59 64 69 71 73 88 84 85 82 82 79 77 90 80 71 72 73 81 80 82 82
7 14 20 21 15 16 15 15 15 15 15 21 17 22 24 28 30 44 50 49 54 56 60 64 70 73 81 86 92 99 97 93 87 84 89 84 83 81 81 79 80 83 87 98
9 12 31 24 22 21 15 11 15 16 16 17 24 25 23 35 43 48 48 50 56 61 65 73 79 80 85 88 85 94 96 89 90 91 91 83 78 83 85 81 77 78 83 88
11 14 26 25 24 27 10 7 8 12 19 19 21 25 37 41 42 44 49 56 59 63 69 78 82 81 84 82 84 84 85 88 87 84 78 79 82 80 77 77 85 85 83 87
7 15 22 27 31 20 9 7 8 11 20 21 30 36 39 42 46 53 50 54 58 63 68 75 76 78 79 77 78 79 80 80 79 82 82 82 81 78 68 83 93 99 99 99
6 13 25 31 27 28 19 9 9 15 28 26 34 40 43 45 66 65 49 47 52 58 63 70 73 75 72 76 73 74 75 75 74 80 82 86 78 66 71 78 87 99 99 97
14 17 22 25 24 16 12 11 11 20 24 26 32 36 38 49 52 49 51 58 60 66 70 71 72 72 75 80 73 74 74 73 75 80 81 78 85 74 77 80 78 86 96 99
28 33 27 27 24 20 11 12 18 23 21 25 32 35 46 46 49 52 55 60 66 70 71 72 76 76 76 70 74 78 78 80 80 79 76 80 78 79 80 82 84 80 84 95
21 22 27 18 32 24 18 20 18 23 35 41 44 42 44 49 52 52 58 64 66 70 71 70 69 70 75 72 70 77 78 76 84 74 68 62 68 62 61 60 66 74 89 84
18 15 21 20 16 22 15 15 15 24 40 40 39 40 42 47 48 51 53 59 64 66 68 67 73 80 78 72 74 75 76 74 77 71 68 52 49 52 58 61 62 66 72 77
19 23 22 24 18 17 19 19 21 25 34 35 36 38 42 45 48 50 55 59 57 63 72 69 80 77 74 68 68 66 68 64 63 70 68 68 70 67 67 70 74 73 76 80
24 26 27 28 31 36 24 24 22 21 30 34 38 41 41 45 48 52 58 58 68 73 73 71 73 72 70 67 65 64 64 60 55 56 62 65 74 79 72 69 73 72 74 75
Wind_Speed
7 4 6 10 12 20 10 17 14 16 11 12 9 13 13 13 12 10 9 9 9 12 12 18 25 32 28 24 17 29 25 24 19 17 17 12 12 13 16 14 14 12 11 8
6 8 10 13 15 20 18 14 5 9 17 8 13 12 10 11 14 13 12 11 13 12 13 17 24 30 32 30 27 20 26 21 18 18 18 10 11 14 16 15 15 11 10 10
7 8 12 9 14 12 15 7 5 2 12 7 17 6 9 7 10 13 13 14 9 16 15 14 17 28 32 35 34 29 27 22 20 16 15 16 8 12 14 18 19 17 13 8
8 18 11 17 18 11 12 15 19 17 13 4 9 3 4 8 7 14 11 16 13 12 15 16 17 23 29 34 37 33 30 25 21 15 23 20 18 17 16 19 21 17 14 14
14 9 9 6 5 7 5 28 28 19 14 0 8 6 6 9 7 8 9 17 15 15 17 17 19 23 31 33 37 36 31 28 23 21 14 15 14 10 7 16 12 20 15 12
11 10 8 6 2 16 10 13 19 16 10 2 10 3 5 9 10 8 7 8 15 16 17 14 24 26 28 33 30 36 34 29 26 22 21 14 14 12 5 11 12 13 13 15
10 11 7 5 9 8 12 8 4 6 4 5 5 3 8 12 9 10 10 9 8 16 17 11 9 21 23 31 29 34 35 31 27 23 22 20 18 12 12 11 10 9 10 12
6 6 6 6 2 5 7 6 5 5 3 7 8 0 2 9 11 14 11 9 8 6 13 13 12 20 25 30 31 30 33 29 26 25 22 21 21 17 15 14 14 13 8 6
7 7 5 9 8 9 3 7 14 9 7 5 5 3 7 9 9 8 10 8 14 9 11 10 11 21 26 29 32 33 32 29 27 27 24 21 21 21 19 17 17 17 16 13
8 5 8 8 8 7 14 16 7 3 3 4 7 6 6 7 7 10 10 10 11 9 9 9 10 19 26 30 30 31 29 29 26 24 25 24 21 21 21 21 17 18 20 17
9 2 9 9 7 11 3 8 4 7 3 5 4 3 9 8 9 10 12 11 11 10 10 9 9 22 25 26 24 23 25 23 21 21 20 24 26 25 24 24 24 23 23 22
10 4 5 13 9 9 6 4 8 5 6 3 4 4 9 9 7 15 10 8 10 10 9 9 11 22 22 24 25 24 25 24 22 21 24 27 27 27 28 28 28 26 28 24
9 4 4 5 3 5 3 6 6 8 6 8 6 4 8 11 13 12 11 9 7 7 10 9 9 11 13 13 18 25 26 27 26 26 28 28 30 32 32 32 33 32 32 31
9 7 6 6 10 8 7 6 7 8 5 2 5 8 8 9 12 9 10 12 17 17 18 13 12 12 20 22 20 16 13 11 10 26 26 28 25 25 28 26 21 24 32 16
8 7 2 5 3 2 10 16 13 8 6 6 13 13 9 11 11 11 17 19 18 16 16 13 12 11 19 23 25 24 22 20 17 19 13 16 9 6 10 12 17 21 22 11
6 3 3 4 5 4 9 19 15 14 10 5 9 8 11 11 16 17 16 18 17 15 14 14 13 16 19 20 21 24 25 24 23 25 24 22 22 21 21 19 21 22 21 8
6 6 3 5 7 12 11 10 18 9 8 8 16 13 13 13 18 15 14 15 15 14 12 12 12 15 20 21 22 22 22 19 23 25 24 25 24 24 23 22 22 23 19 13
6 6 4 4 3 6 4 6 11 13 20 18 18 13 19 18 15 16 13 14 13 13 12 12 15 18 21 21 20 19 20 21 22 22 22 22 21 22 23 23 22 21 22 22
10 5 4 5 3 6 1 3 5 12 13 20 22 23 23 22 20 12 12 11 11 11 15 18 20 21 20 18 17 17 17 17 19 19 19 20 19 22 25 25 23 23 23 24
9 7 5 5 5 8 8 5 7 13 6 24 27 25 24 20 12 6 12 12 12 19 20 20 21 19 18 16 17 19 17 16 15 15 16 16 18 23 28 29 28 23 24 25
5 2 7 4 3 5 1 9 9 8 8 23 26 24 21 10 11 15 16 14 19 20 22 23 18 16 14 19 17 15 14 13 11 12 13 16 13 19 19 21 24 26 24 24
4 6 4 4 4 6 2 7 10 8 6 20 21 15 17 22 21 19 17 15 17 19 20 20 17 14 17 15 14 10 10 10 10 12 13 12 14 13 14 14 15 21 24 22
4 6 4 8 6 6 4 8 7 12 19 20 24 25 27 24 21 18 16 16 17 21 20 20 19 17 17 14 11 9 8 9 12 13 13 14 12 15 16 19 16 19 13 19
5 5 3 6 2 9 7 7 7 21 24 23 25 24 24 23 20 18 14 14 15 21 20 22 20 19 17 12 10 10 10 12 13 13 11 12 14 14 13 15 17 17 17 16
5 7 5 2 5 1 5 10 12 19 24 26 25 26 25 23 19 18 14 12 17 19 23 24 20 17 13 11 10 9 11 10 12 11 7 7 8 10 14 15 13 12 12 11
6 6 5 5 3 6 4 9 13 16 23 26 24 21 22 25 21 18 13 18 21 22 25 23 19 18 15 12 10 10 8 7 9 8 7 4 6 8 7 12 15 14 13 13
Wind_Direction
160 120 201 191 160 161 218 194 227 192 175 154 159 151 158 162 154 150 152 151 160 157 168 164 148 151 153 156 154 174 182 175 172 177 187 200 212 220 226 230 221 231 222 225
290 207 240 161 194 195 226 244 340 123 178 173 165 155 159 166 164 163 163 172 168 170 167 178 168 157 161 164 168 174 171 173 175 191 194 185 226 230 230 238 233 220 228 224
196 237 254 214 200 200 229 184 174 98 1 114 133 134 151 187 158 170 172 180 180 174 179 179 181 170 166 171 174 177 177 179 189 197 191 197 218 218 237 235 238 211 208 213
228 230 232 248 167 182 67 102 92 33 46 322 333 170 162 172 198 179 181 183 186 173 181 181 192 177 172 177 179 180 183 182 190 195 166 180 193 201 198 203 202 201 199 214
245 232 235 265 119 83 135 92 90 100 133 234 316 108 222 166 208 196 209 185 184 189 175 185 191 181 180 177 181 182 184 185 185 190 200 193 195 215 187 185 211 208 214 213
243 266 201 224 109 118 148 107 106 96 109 309 264 133 211 182 191 189 209 206 192 189 181 178 188 185 174 179 175 185 185 187 185 191 204 204 216 216 196 180 182 196 215 225
262 257 201 171 106 50 82 58 19 49 10 241 188 79 218 198 184 169 192 211 176 178 174 177 152 171 159 171 171 182 187 191 195 194 206 212 214 215 216 197 206 223 232 236
217 267 217 126 118 128 50 100 90 41 0 300 25 77 197 145 149 164 178 184 115 123 154 166 159 167 158 166 169 175 187 195 199 200 208 215 216 221 226 223 230 236 247 235
201 242 168 153 131 136 204 66 131 140 240 274 216 110 72 128 142 148 140 108 145 101 128 134 145 149 153 158 167 179 187 195 200 205 210 220 226 229 236 240 237 237 239 239
254 176 231 193 171 113 154 147 81 18 205 315 146 145 181 171 161 165 138 133 135 130 127 128 137 146 157 164 169 181 187 193 201 210 216 221 230 236 239 241 249 246 236 240
243 219 284 154 187 168 167 144 160 123 143 238 157 202 190 177 173 156 137 140 144 139 133 135 127 149 155 163 163 169 182 191 199 210 222 225 229 234 240 247 247 246 245 237
224 230 223 181 194 202 197 149 136 147 173 154 161 250 145 157 132 90 113 126 130 136 129 124 127 142 154 161 169 171 182 190 201 213 216 227 229 232 235 241 246 247 240 236
211 254 267 252 149 221 181 77 87 95 50 165 147 214 105 84 83 98 101 88 100 96 112 110 84 76 86 79 174 178 185 196 208 211 217 223 230 228 233 237 244 245 240 232
148 235 176 202 193 177 126 160 160 126 126 193 196 131 112 115 109 96 91 80 81 71 76 73 69 73 72 68 67 78 63 38 220 222 222 225 229 234 237 249 259 259 247 261
151 220 9 303 242 340 169 131 109 108 154 127 162 139 157 141 118 108 95 86 82 75 72 71 68 62 53 53 54 59 53 51 58 63 69 47 37 325 343 345 5 354 359 271
174 192 75 312 273 332 281 150 141 142 203 161 142 117 126 114 101 97 100 98 94 89 79 71 62 63 60 55 52 54 52 49 53 59 55 51 45 41 34 20 15 31 33 44
148 121 84 262 324 323 225 176 168 185 181 158 128 145 123 106 104 106 101 97 99 95 88 77 72 65 68 63 62 58 57 54 57 58 54 51 45 46 40 28 16 10 16 8
165 138 115 260 315 263 178 96 146 119 111 115 117 113 107 108 102 97 95 103 102 101 96 88 83 78 81 77 74 74 67 66 63 56 53 50 46 41 27 19 12 4 360 356
171 152 148 134 203 268 184 169 117 132 150 130 116 109 108 106 97 88 100 101 107 108 106 105 101 96 94 94 90 86 78 69 66 64 55 54 51 40 28 28 28 27 28 25
179 155 129 136 181 225 213 172 118 104 105 133 125 127 126 119 113 139 124 114 102 101 107 110 109 106 103 102 97 87 83 81 72 65 57 54 53 51 47 46 43 42 46 46
171 183 177 193 198 278 234 145 107 96 208 146 141 141 139 134 140 134 112 102 100 103 106 112 115 114 111 108 103 95 100 91 82 73 67 69 69 56 52 49 52 57 57 49
133 142 189 170 147 246 288 150 135 197 118 143 132 136 121 121 123 126 127 124 117 116 118 129 131 116 114 107 107 106 101 105 93 88 77 78 72 60 50 56 58 61 60 60
202 165 176 167 204 199 97 125 137 111 118 127 126 128 129 129 129 132 137 139 140 134 134 129 121 112 111 110 106 102 97 109 111 96 82 78 93 76 67 61 64 63 70 69
209 160 165 57 290 140 130 116 111 119 130 130 130 133 132 133 135 134 131 130 131 136 138 134 124 114 115 112 107 103 109 113 126 120 97 96 92 91 85 77 67 67 65 66
190 130 177 233 292 45 156 134 127 121 133 133 137 138 136 134 135 131 131 131 136 129 125 130 125 125 116 106 104 110 112 119 115 136 135 126 123 96 86 76 70 67 65 57
27 346 138 221 197 143 190 140 135 129 145 144 140 139 140 137 136 131 130 131 122 121 126 129 134 138 132 126 112 104 113 128 136 137 108 116 154 165 116 91 82 74 75 75